Weather History for CYHE - May, 2014

Change the Weather History Date:

Thursday, May 1, 2014

  Actual Average Record
Temperature  
Mean Temperature 66 °F -  
Max Temperature 83 °F 65 °F 89 °F (1998)
Min Temperature 50 °F 46 °F 33 °F (2013)
Cooling Degree Days 2    
Growing Degree Days 16 (Base 50)    
Moisture  
Dew Point 45 °F    
Average Humidity 46    
Maximum Humidity 71    
Minimum Humidity 18    
Precipitation  
Precipitation 0.01 in 0.12 in - ()
Sea Level Pressure  
Sea Level Pressure 30.08 in    
Wind  
Wind Speed 8 mph ()    
Max Wind Speed 14 mph    
Max Gust Speed 23 mph    
Visibility 8.8 miles    
Events      
Averages and records for this station are not official NWS values.
T = Trace of Precipitation, MM = Missing Value Source: Averaged Metar Reports

Daily Weather History Graph

Daily Weather History Graph

Search for Another Location

Airport or City:

Trip Planner

Search our weather history database for the weather conditions in past years. The results will help you decide how hot, cold, wet, or windy it might be!

Date:

Astronomy

May. 01, 2014 Rise Set
Actual Time 5:43 AM PDT 8:23 PM PDT
Civil Twilight 5:07 AM PDT 8:59 PM PDT
Nautical Twilight 4:22 AM PDT 9:45 PM PDT
Astronomical Twilight 3:28 AM PDT 10:40 PM PDT
Moon 7:30 AM PDT (5/1) 11:06 PM PDT (5/1)
Length of Visible Light 15h 51m
Length of Day
14h 39m
Waxing Crescent, 7% of the Moon is Illuminated
May 1
Waxing Crescent
May 6
First Quarter
May 14
Full
May 21
Last Quarter
May 28
New

Hourly Weather History & Observations

Time (PDT) Temp. Dew Point Humidity Pressure Visibility Wind Dir Wind Speed Gust Speed Precip Events Conditions
12:00 AM 60.8 °F 44.6 °F 55% 30.25 in 9.0 mi East 8.1 mph - N/A   Clear
1:00 AM 59.0 °F 44.6 °F 59% 30.25 in 9.0 mi East 9.2 mph - N/A   Clear
2:00 AM 56 °F 43 °F 50% 30.25 in - ENE 9.2 mph - -  
2:00 AM 55.4 °F 42.8 °F 63% 30.25 in 9.0 mi ESE 12.7 mph - N/A   Clear
3:00 AM 53.6 °F 42.8 °F 67% 30.24 in 9.0 mi East 12.7 mph - N/A   Clear
4:00 AM 55.4 °F 42.8 °F 63% 30.24 in 9.0 mi East 10.4 mph 17.3 mph N/A   Partly Cloudy
5:00 AM 52 °F 42 °F 61% 30.23 in - ENE 9.2 mph - -  
5:00 AM 51.8 °F 42.8 °F 71% 30.23 in 9.0 mi East 13.8 mph - N/A   Clear
6:00 AM 51.8 °F 42.8 °F 71% 30.22 in 9.0 mi East 9.2 mph 18.4 mph N/A   Clear
7:00 AM 51.8 °F 42.8 °F 71% 30.21 in 9.0 mi East 13.8 mph - N/A   Clear
8:00 AM 55 °F 43 °F 54% 30.20 in - ENE 10.4 mph - -  
8:00 AM 55.4 °F 42.8 °F 63% 30.20 in 9.0 mi East 9.2 mph 17.3 mph N/A   Clear
9:00 AM 60.8 °F 42.8 °F 52% 30.17 in 9.0 mi East 10.4 mph 19.6 mph N/A   Clear
10:00 AM 68.0 °F 42.8 °F 40% 30.13 in 9.0 mi East 10.4 mph 23.0 mph N/A   Clear
11:00 AM 68 °F 44 °F 30% 30.11 in - ENE 9.2 mph - -  
11:00 AM 68.0 °F 44.6 °F 43% 30.10 in 9.0 mi East 9.2 mph - N/A   Clear
12:00 PM 73.4 °F 44.6 °F 36% 30.06 in 9.0 mi East 11.5 mph - N/A   Clear
1:00 PM 77.0 °F 42.8 °F 29% 30.03 in 9.0 mi East 6.9 mph - N/A   Clear
2:00 PM 79 °F 46 °F 20% 30.01 in - East 4.6 mph - -  
2:00 PM 78.8 °F 46.4 °F 32% 30.00 in 9.0 mi East 4.6 mph - N/A   Clear
2:58 PM 82.4 °F 44.6 °F 26% 29.98 in 3.0 mi WSW 3.5 mph - N/A   Haze
3:08 PM 82.4 °F 44.6 °F 26% 29.97 in 9.0 mi West 4.6 mph - N/A   Clear
4:00 PM 82.4 °F 48.2 °F 30% 29.95 in 9.0 mi West 9.2 mph - N/A   Clear
5:00 PM 80 °F 45 °F 18% 29.94 in - West 8.1 mph - -  
5:00 PM 80.6 °F 44.6 °F 28% 29.94 in 9.0 mi WNW 8.1 mph - N/A   Clear
6:00 PM 78.8 °F 44.6 °F 30% 29.92 in 9.0 mi West 4.6 mph - N/A   Clear
7:00 PM 75.2 °F 48.2 °F 38% 29.92 in 9.0 mi WSW 5.8 mph - N/A   Clear
8:00 PM 68 °F 49 °F 39% 29.93 in - North 2.3 mph - -  
8:00 PM 68.0 °F 48.2 °F 49% 29.93 in 9.0 mi Calm Calm - N/A   Clear
9:00 PM 66.2 °F 48.2 °F 52% 29.95 in 9.0 mi Variable 2.3 mph - N/A   Clear
10:00 PM 64.4 °F 44.6 °F 49% 29.97 in 9.0 mi ENE 5.8 mph - N/A   Clear
11:00 PM 62 °F 45 °F 42% 29.99 in - NE 2.3 mph - -  
11:00 PM 62.6 °F 44.6 °F 52% 29.99 in 9.0 mi NE 3.5 mph - N/A   Clear